Regional Weather Roundup
Issued by NWS

Home | Current Version | Previous Version | Graphics & Text | Print | Product List | Glossary On
Versions: 1 2 3 4 5 6 7 8 9 10 11 12 13 14 15 16 17 18 19 20 21 22 23 24 25 26 27 28 29 30 31 32 33 34 35 36 37 38 39 40 41 42 43 44 45 46 47 48 49 50
000
ASUS43 KLMK 230110
RWRKY
NATIONAL WEATHER SERVICE LOUISVILLE KY
800 PM EST WED NOV 22 2017

NOTE "FAIR" INDICATES FEW OR NO CLOUDS BELOW 12,000 FEET
WITH NO SIGNIFICANT WEATHER AND/OR OBSTRUCTIONS TO VISIBILITY.

KYZ001>023-026-027-061>063-070>075-230200-
WESTERN AND SOUTH CENTRAL KENTUCKY

CITY           SKY/WX    TMP DP  RH WIND       PRES   REMARKS
PADUCAH        CLEAR     32  20  61 CALM      30.28S
HENDERSON      CLEAR     32  24  72 NW3       30.29F
OWENSBORO      CLEAR     35  22  58 N5        30.29  WCI  31
HOPKINSVILLE   CLEAR     33  22  65 N5        30.26S WCI  28
BOWLING GREEN  CLEAR     38  24  57 N5        30.27R WCI  34
GLASGOW        CLEAR     34  24  65 N5        30.25S WCI  30
$$

KYZ024-025-028>034-038-045-046-053-230200-
NORTH CENTRAL KENTUCKY

CITY           SKY/WX    TMP DP  RH WIND       PRES   REMARKS
LOUISVILLE/SDF CLEAR     36  24  62 N7        30.27S WCI  30
LOUISVILLE/LOU CLEAR     36  25  64 N3        30.28S
FORT KNOX      CLEAR     33  22  65 N5        30.25R WCI  28
$$

KYZ035>037-039>044-047>052-055>060-089>105-230200-
NORTHEAST KENTUCKY

CITY           SKY/WX    TMP DP  RH WIND       PRES   REMARKS
LEXINGTON      CLEAR     33  24  69 E7        30.26R WCI  27
COVINGTON      CLEAR     32  25  75 E5        30.25F WCI  27
FRANKFORT      CLEAR     35  22  58 NE5       30.26R WCI  31
$$

KYZ054-064>069-076>088-106>120-230200-
SOUTHEAST KENTUCKY

CITY           SKY/WX    TMP DP  RH WIND       PRES   REMARKS
JACKSON        CLEAR     34  24  67 VRB6      30.22S WCI  29
LONDON         CLEAR     34  24  67 N5        30.21S WCI  30
SOMERSET       CLEAR     34  25  69 N3        30.25R
MIDDLESBORO    CLEAR     33  28  83 CALM      30.21R
MONTICELLO     CLEAR     33  25  72 N17       30.24S WCI  22
$$





USA.gov is the U.S. government's official web portal to all federal, state and local government web resources and services.